GEFSSE_con_cape1000_330.txt.gz
Probability
52 45 74 65 68 48 52 52 55 65 58 61 55 55 55 48 45 45 45 45 39 45 42 48 55 48 52 45 45 48 55 55 65 61 58 61 61 65 68 55 61 39 61
42 29 74 77 65 48 45 52 58 65 65 52 55 52 52 48 48 45 45 42 45 42 45 58 58 52 48 55 52 48 52 61 58 58 52 52 52 61 71 65 65 39 55
32 35 58 71 65 55 58 58 58 61 65 55 55 55 55 55 52 52 52 48 42 39 42 48 48 48 42 45 45 48 45 58 61 65 68 32 42 58 61 61 61 61 52
26 26 32 74 65 58 55 61 61 61 61 55 58 58 52 48 42 52 55 42 39 32 39 42 42 39 42 42 35 39 32 26 39 48 35 16 13 29 52 52 55 45 48
32 39 68 61 61 52 61 61 61 61 61 65 58 55 58 58 58 52 52 39 42 39 39 35 39 32 39 39 39 32 26 26 32 29 23 13 16 35 35 42 39 29 39
26 16 55 81 71 65 58 61 58 58 58 48 61 58 61 61 65 65 55 52 52 52 45 42 45 42 35 29 26 23 19 29 42 19 13 19 23 39 32 32 42 42 35
32 29 45 84 81 71 68 65 65 55 55 52 52 71 61 68 58 55 48 48 48 42 39 42 39 39 35 26 26 29 29 39 42 6 13 16 23 45 39 35 42 39 29
26 32 45 81 84 74 68 55 52 45 52 52 52 58 52 55 52 52 48 35 26 32 39 39 39 39 35 32 35 19 29 42 16 6 23 16 26 45 39 32 29 29 26
26 29 42 48 71 77 65 68 48 52 61 55 55 52 52 52 52 39 52 39 35 32 32 29 29 39 39 42 32 32 35 58 32 13 0 16 39 42 35 29 23 26 23
35 35 48 58 55 58 55 68 68 74 71 61 48 48 58 61 48 52 55 45 35 29 32 39 42 45 45 42 35 39 39 42 23 10 16 13 39 35 29 23 26 23 19
32 35 35 39 55 52 29 45 65 68 58 61 52 45 55 48 29 48 29 45 48 45 42 45 48 48 52 42 48 52 52 29 13 13 13 19 32 29 26 32 23 23 19
32 32 39 39 42 42 26 52 52 39 68 65 58 65 68 74 52 16 42 61 55 61 58 65 68 58 45 35 48 58 39 26 16 13 19 45 39 35 32 26 35 35 32
23 26 39 45 61 55 48 52 58 61 77 55 58 65 74 71 52 39 42 48 58 52 45 48 45 32 39 35 32 26 23 23 16 6 26 48 48 42 39 45 39 32 32
32 29 35 42 58 68 68 58 61 55 58 52 65 58 68 74 81 77 74 61 61 58 65 52 55 42 45 32 35 29 19 23 16 23 26 48 52 45 39 42 42 42 39
32 42 52 58 81 77 90 84 52 58 48 55 74 61 65 81 81 65 74 81 65 68 55 68 65 61 52 45 35 35 29 29 32 26 23 48 52 52 39 42 39 45 45
42 39 52 55 84 81 84 90 77 52 81 55 68 55 58 81 87 81 74 81 71 71 71 74 55 65 71 55 45 52 48 42 48 42 26 35 48 48 45 35 39 42 45
48 48 48 55 65 84 77 81 55 55 52 65 68 58 58 77 84 90 81 81 74 71 68 74 71 65 71 52 55 52 48 52 48 42 39 39 35 45 52 42 35 39 39
48 65 65 23 58 74 84 87 68 61 77 74 77 74 74 71 77 84 81 84 81 81 77 81 77 77 71 65 61 65 58 55 48 52 45 48 32 26 45 48 45 45 45
71 84 81 74 68 71 77 81 84 84 81 74 81 81 71 65 71 71 84 84 77 81 74 65 68 77 71 68 61 68 61 55 52 42 45 42 45 39 32 42 48 48 42
68 81 77 84 87 84 84 84 84 81 71 68 81 77 68 68 68 77 84 74 74 77 77 81 74 81 77 77 48 48 55 58 55 58 52 45 39 35 32 35 32 35 45
68 81 81 84 87 84 90 84 84 84 77 71 77 77 65 74 81 84 65 77 68 68 71 77 81 74 81 81 65 61 52 45 52 52 58 55 39 42 52 48 39 29 26
77 87 81 87 87 87 90 90 90 84 74 74 77 84 68 58 68 52 65 74 71 71 71 74 81 77 74 77 71 65 61 58 52 32 48 52 45 39 32 32 42 39 35
74 74 74 94 94 90 87 84 81 87 84 84 77 90 77 68 58 68 68 68 68 74 71 77 74 74 65 74 74 71 55 52 52 52 45 48 52 55 48 42 42 42 35
61 71 87 90 94 94 87 84 81 81 74 77 87 87 77 61 61 61 58 68 61 68 74 71 74 74 74 68 68 65 61 58 58 45 45 45 48 48 45 29 32 42 42
45 65 84 90 90 94 94 90 90 81 84 84 84 84 77 71 61 55 52 58 61 58 61 65 71 68 65 65 61 61 61 65 55 45 42 35 42 45 42 42 42 42 42
58 68 77 90 94 94 90 87 84 84 84 81 81 81 77 71 61 58 58 58 58 61 61 61 65 61 61 58 58 55 55 65 52 48 39 42 39 42 45 45 39 45 39

GEFSSE_con_cape1000_336.txt.gz
Probability
13 32 77 74 77 65 68 65 65 68 74 61 68 65 68 61 61 61 65 61 65 65 71 68 58 58 58 55 55 52 61 65 61 65 55 55 61 68 68 61 58 48 65
10 45 74 71 61 65 68 68 65 81 77 71 71 68 61 61 55 58 65 61 58 61 65 61 55 55 48 48 48 58 65 58 58 65 58 61 61 61 65 68 55 42 55
19 32 61 68 65 65 68 68 71 81 81 77 68 65 68 55 61 58 58 58 58 58 58 55 45 45 48 45 48 58 52 55 52 52 48 29 39 52 65 65 61 61 65
13 26 42 71 68 71 74 74 68 74 74 77 71 65 71 68 71 61 58 45 45 55 52 52 48 42 45 45 48 48 52 48 32 39 0 10 19 42 45 55 58 55 52
13 23 52 68 71 71 77 74 74 71 77 77 74 65 77 74 68 68 61 52 61 61 55 48 42 42 45 42 45 48 48 39 45 16 3 0 10 32 42 42 55 58 52
6 26 61 81 71 68 77 74 74 74 71 71 65 65 61 65 65 61 61 58 58 48 45 39 42 39 42 42 42 42 42 39 26 3 3 0 10 29 39 42 45 42 35
3 23 55 81 74 74 77 71 68 65 71 65 61 65 61 58 61 65 55 52 48 45 45 39 39 42 39 39 35 35 35 39 19 3 0 0 6 29 35 39 42 35 32
10 16 58 87 81 77 84 81 81 77 81 81 74 61 61 65 55 55 52 52 42 35 42 48 42 45 45 35 42 39 45 42 10 3 0 3 16 35 35 39 39 39 35
3 10 35 65 74 87 87 90 87 90 77 74 77 68 74 65 61 65 52 55 45 42 45 55 42 45 45 42 42 45 45 45 6 3 6 3 26 35 35 35 32 26 35
6 10 13 19 29 42 55 81 84 77 81 77 77 71 71 65 61 55 48 61 52 52 52 48 48 55 52 52 48 45 58 32 10 3 3 6 39 39 32 39 29 23 29
6 0 0 0 3 6 16 58 61 68 71 65 65 77 55 23 26 32 39 58 55 58 61 55 61 58 52 58 48 55 39 10 6 0 0 16 42 35 39 45 35 32 29
6 3 0 0 0 0 3 10 16 23 19 19 19 16 10 6 3 10 29 65 65 65 61 58 61 58 35 23 19 29 16 10 3 0 6 26 39 35 45 39 35 39 39
10 10 3 0 0 0 0 3 3 3 6 6 6 6 3 3 6 6 6 23 32 42 26 29 45 16 6 6 6 6 3 3 0 0 6 39 52 48 48 45 35 42 45
10 10 3 0 3 3 0 3 3 3 6 6 3 3 6 6 3 3 3 6 6 6 6 3 6 6 3 3 6 3 3 3 3 3 3 39 58 52 45 39 48 48 52
16 10 10 6 6 10 6 3 3 6 10 3 6 6 6 6 3 3 6 6 3 6 6 6 3 0 3 6 6 6 6 6 6 3 0 39 52 58 48 52 52 48 45
13 10 13 10 3 0 0 0 0 3 10 10 10 10 10 13 10 10 10 6 6 6 6 6 6 0 6 6 6 6 6 3 0 3 6 19 55 55 52 48 58 55 52
10 6 6 3 6 3 3 3 6 10 10 6 6 6 6 16 13 13 13 16 6 3 6 6 3 0 3 6 10 6 3 3 0 3 3 6 3 48 52 55 52 55 52
6 10 6 16 10 10 10 10 6 6 6 13 13 10 10 13 23 13 19 6 6 13 6 10 3 3 3 6 0 0 3 6 0 0 3 3 0 0 26 45 48 52 45
13 10 6 13 13 13 13 13 10 10 10 13 16 10 13 19 23 23 19 13 16 13 10 10 6 10 6 10 3 0 0 3 3 3 0 0 0 0 3 10 48 48 48
16 10 6 13 13 10 13 10 10 10 13 16 13 3 16 26 23 19 26 23 23 16 6 3 6 10 10 10 3 3 0 0 0 0 10 3 0 0 0 3 6 26 48
16 16 13 13 10 16 16 13 13 16 13 16 13 13 19 19 26 19 19 16 16 23 23 13 13 10 13 6 0 0 0 0 3 3 3 3 3 0 0 0 0 3 13
16 16 16 10 10 16 23 16 23 23 16 16 10 16 16 19 19 23 16 19 19 23 23 19 16 13 13 10 3 0 0 0 0 6 6 6 3 3 0 3 0 0 3
19 26 16 23 13 16 29 32 23 26 26 13 13 23 19 16 16 26 23 23 23 23 23 19 16 19 19 16 13 6 3 0 0 0 3 3 3 3 3 3 3 6 3
23 23 19 23 23 16 23 23 19 13 13 16 10 13 19 19 13 16 19 19 19 23 23 19 23 19 16 19 13 10 6 0 0 0 0 0 0 0 3 6 3 3 3
26 29 32 35 26 26 29 23 23 23 3 3 6 13 19 19 19 16 16 26 16 23 26 19 23 16 16 19 19 16 13 10 3 0 0 0 0 0 3 3 0 0 0
29 42 45 35 45 35 32 35 23 23 26 16 13 10 13 23 16 13 19 32 26 23 29 26 32 26 23 23 26 26 19 13 10 6 3 3 3 3 0 0 0 0 0

GEFSSE_con_cape1000_342.txt.gz
Probability
3 19 65 65 65 68 68 65 65 68 71 74 71 71 71 71 81 77 74 71 71 71 68 61 68 65 61 61 58 71 65 52 58 52 58 55 52 52 65 55 61 52 74
3 26 71 65 58 58 61 61 61 71 77 68 68 61 58 71 74 68 71 68 68 68 65 65 58 58 55 55 58 61 58 58 58 48 52 45 42 52 61 52 55 32 65
10 23 55 65 58 55 68 74 71 65 65 71 71 74 71 61 58 68 65 58 68 58 52 52 52 45 45 52 52 58 52 45 48 45 42 42 39 45 45 42 52 48 52
6 16 35 55 61 68 68 71 71 65 61 71 68 77 74 61 58 68 68 61 61 55 55 55 45 42 48 48 55 48 48 39 58 45 16 19 16 35 42 42 48 42 55
10 10 29 58 71 71 65 74 71 68 71 81 68 68 68 65 68 71 65 61 58 45 52 45 45 45 42 45 45 42 48 52 55 23 3 3 16 23 26 29 35 35 32
6 10 29 61 71 74 81 74 77 74 74 77 68 71 65 71 68 61 58 52 52 45 48 48 39 39 45 45 42 42 45 45 23 13 3 10 13 26 29 29 32 35 45
3 6 23 65 71 77 77 68 74 74 84 81 74 74 74 71 74 68 58 52 48 48 48 48 29 35 48 52 42 42 45 35 23 16 6 6 13 35 29 32 35 39 45
10 10 29 65 77 77 81 74 71 71 68 77 77 71 65 74 74 68 65 61 58 58 55 48 39 42 48 48 52 48 39 39 16 0 10 6 19 39 39 35 55 48 42
6 10 13 32 58 84 84 77 71 81 68 74 77 74 68 74 71 65 58 55 52 52 52 48 48 39 52 48 55 45 39 42 13 6 3 6 23 39 52 45 52 48 42
0 3 10 16 16 23 39 65 77 74 68 65 68 68 71 65 58 48 52 55 55 48 52 48 45 39 48 45 55 48 42 32 13 3 6 10 19 39 35 39 42 42 42
3 0 3 6 10 10 16 32 42 48 52 48 45 68 39 23 23 29 35 45 52 48 42 58 48 52 45 52 45 45 29 13 3 3 6 19 26 35 35 32 42 39 39
0 0 0 3 0 0 3 0 10 16 16 13 13 10 6 3 0 19 29 45 55 52 55 58 55 39 26 23 26 23 10 3 6 6 10 19 26 32 32 32 35 42 42
0 0 0 0 0 0 0 0 0 6 6 6 6 3 0 3 0 3 0 16 19 23 19 23 19 23 16 13 10 6 6 3 3 6 6 16 29 35 48 39 42 35 42
0 0 0 0 0 0 0 0 0 3 3 3 3 0 0 0 0 0 0 6 10 13 10 10 10 3 10 3 6 6 3 3 3 6 3 16 35 39 45 42 42 42 48
3 0 0 0 0 0 0 0 0 0 0 0 0 0 0 0 0 0 3 3 3 3 6 3 3 3 3 3 10 10 6 6 6 3 3 10 42 48 42 42 45 39 42
0 0 0 0 0 0 0 0 0 0 0 0 0 0 0 0 0 3 3 3 3 3 3 3 3 3 3 0 3 6 6 6 3 3 3 6 26 55 52 45 48 52 45
0 3 3 3 0 0 0 0 0 0 0 0 0 3 3 3 0 3 3 3 0 0 3 3 3 0 3 0 3 0 3 3 3 3 3 3 13 26 45 52 52 52 48
0 3 3 6 3 0 0 0 0 0 3 3 3 3 3 6 3 3 3 0 0 3 3 3 0 6 6 6 3 3 3 6 0 0 0 0 0 10 23 42 45 48 52
0 0 3 0 3 0 0 0 0 0 6 3 3 3 3 3 10 3 3 6 10 13 6 6 3 3 6 6 3 3 3 3 3 0 0 3 3 6 3 3 32 52 48
0 0 0 0 3 3 3 3 3 6 3 0 0 0 0 6 10 13 6 6 10 13 13 6 3 3 6 3 3 3 6 3 3 3 3 6 3 3 6 6 6 19 35
0 0 0 0 6 6 6 3 3 3 3 0 0 3 3 6 6 10 10 3 10 13 10 13 6 10 10 3 3 3 0 0 0 0 3 6 6 6 6 6 6 3 6
0 0 3 3 6 6 6 3 3 3 3 0 0 3 3 0 3 16 13 13 13 16 16 13 16 16 16 10 10 6 3 3 0 0 3 0 6 3 6 3 3 3 3
3 0 13 6 6 6 6 6 6 3 3 0 0 0 0 10 13 13 13 16 13 16 16 16 16 16 16 13 6 6 3 3 3 0 0 3 3 3 6 10 3 3 6
3 3 6 6 6 6 6 6 6 3 3 3 3 0 0 3 10 6 13 16 13 16 16 16 19 16 16 19 16 6 3 3 6 3 3 0 6 3 3 3 3 3 6
10 10 6 6 6 6 6 6 3 0 0 0 0 0 0 10 13 13 13 13 10 13 16 13 16 16 16 19 19 19 13 3 3 3 6 6 3 0 3 3 3 3 3
19 16 13 10 13 6 3 0 0 0 0 0 0 0 6 6 10 10 19 13 13 10 16 19 10 19 16 19 19 19 19 19 13 10 10 6 6 3 3 6 0 0 0

GEFSSE_con_cape1000_348.txt.gz
Probability
23 29 52 65 61 58 52 58 61 55 55 61 65 71 74 71 61 58 61 65 61 58 52 48 42 48 48 48 48 45 42 42 42 45 35 35 42 42 42 39 39 32 52
19 32 55 65 65 71 58 61 58 65 65 61 77 71 61 58 68 55 65 65 58 55 48 48 45 48 45 45 45 39 39 42 35 39 35 42 35 42 35 35 45 48 55
19 35 52 65 68 71 68 55 55 61 68 71 74 71 58 65 65 58 58 61 55 52 52 42 48 52 48 48 39 48 35 35 39 35 35 26 39 39 32 32 45 48 48
13 29 42 55 68 58 58 65 68 71 65 68 68 65 48 58 61 58 52 55 52 45 39 42 45 42 39 42 39 39 32 35 32 23 13 10 13 42 35 29 35 42 45
26 26 42 61 65 61 55 58 74 74 74 74 65 58 55 65 61 61 55 42 45 39 42 48 48 42 48 42 29 35 39 32 23 6 3 3 26 42 29 23 32 45 39
19 19 35 58 55 65 65 58 65 68 68 65 68 61 55 65 61 61 58 52 48 42 39 35 45 39 42 39 39 42 42 39 16 6 3 3 23 32 29 32 32 32 39
10 23 29 61 61 65 61 61 65 68 65 68 65 61 58 55 58 52 55 55 55 42 32 35 32 35 39 48 48 48 39 26 16 10 13 16 19 32 26 26 26 29 35
16 23 26 55 68 74 71 61 65 71 71 81 71 61 58 58 52 65 58 52 45 48 42 42 48 52 48 48 48 45 29 26 6 3 10 16 19 32 26 32 29 29 32
13 16 39 35 55 65 74 65 68 77 77 84 74 61 58 48 48 48 52 45 45 48 52 42 52 45 42 48 48 39 32 32 10 10 3 16 16 29 29 26 26 35 29
13 23 32 19 29 39 39 45 68 71 74 77 77 68 61 52 55 45 52 48 52 42 48 39 39 42 48 52 39 39 35 35 10 10 16 13 23 32 29 29 26 26 32
10 23 26 19 23 29 19 19 42 52 55 68 58 58 52 45 35 39 32 48 48 39 32 35 26 23 45 45 42 35 35 19 16 13 16 16 29 26 29 26 26 26 26
23 29 26 19 26 23 10 29 42 29 42 55 55 52 45 48 45 10 35 45 42 42 35 32 35 35 29 26 26 29 19 13 13 10 19 19 26 29 32 32 26 32 32
23 23 23 16 23 16 23 26 39 45 45 42 42 39 58 52 45 32 42 42 45 39 32 26 26 19 19 32 26 19 19 6 19 10 23 23 29 32 32 32 32 32 29
19 23 23 23 19 32 32 35 42 35 35 29 45 45 42 52 45 42 39 32 29 35 26 16 19 16 16 26 29 19 19 16 16 19 39 29 26 26 32 45 35 32 39
23 16 19 32 39 39 48 45 29 39 26 32 58 45 45 45 48 35 45 45 32 32 32 32 29 26 29 23 26 19 32 26 19 26 35 26 29 32 45 45 39 39 42
29 26 26 32 35 45 48 48 42 26 55 32 35 39 58 61 61 48 48 48 45 42 32 35 29 32 26 26 29 39 42 32 39 39 32 26 35 45 45 42 35 35 39
29 32 26 29 39 45 52 48 32 29 23 26 45 58 61 58 61 55 55 48 45 42 39 39 35 23 32 26 35 32 42 29 39 35 35 32 29 29 45 45 42 45 39
26 35 42 19 35 45 52 61 42 35 39 42 42 52 65 61 55 61 55 52 52 42 39 39 35 29 26 29 35 35 39 48 32 29 29 29 39 29 39 42 35 42 42
39 35 42 42 42 42 48 58 61 68 52 45 39 48 52 55 52 55 52 61 55 42 35 35 35 35 35 39 32 45 39 35 39 16 23 23 29 35 32 45 39 39 45
39 45 58 58 58 58 52 61 65 61 55 48 55 68 61 61 52 48 48 52 42 42 42 42 45 48 48 52 29 29 32 26 32 29 16 23 26 26 29 29 39 35 42
39 61 65 61 68 68 68 58 58 55 58 52 55 55 58 61 55 65 39 61 58 55 48 39 42 42 52 45 39 32 29 23 23 39 29 32 19 23 29 32 35 39 35
52 61 71 77 65 71 68 74 74 68 58 48 42 48 55 52 55 42 61 45 48 61 58 58 61 52 26 32 35 29 23 26 32 13 29 29 19 23 16 23 26 45 39
61 68 61 71 68 74 74 68 68 71 61 42 48 55 52 55 52 52 45 52 61 48 45 61 68 61 55 35 45 32 13 13 10 13 23 26 26 26 26 16 26 32 35
61 68 77 84 84 81 81 74 71 77 58 58 58 48 52 55 48 52 55 58 58 52 55 48 42 55 52 42 39 55 35 29 32 16 19 19 32 29 29 26 19 23 29
61 61 74 81 87 87 84 84 87 71 68 58 55 58 61 65 65 55 58 58 61 55 58 55 55 52 52 42 39 35 35 35 29 39 29 32 26 26 23 26 29 29 26
61 65 77 81 90 90 87 87 87 84 84 68 68 58 61 61 61 58 58 65 61 58 58 58 58 45 52 52 45 32 29 32 35 32 29 48 39 26 26 29 26 23 26

GEFSSE_con_cape1000_354.txt.gz
Probability
39 42 65 55 55 55 48 48 48 42 45 55 55 61 68 65 65 58 55 58 61 55 55 55 52 52 45 39 39 42 42 39 39 39 42 42 45 52 48 55 42 26 48
39 48 68 68 58 61 55 55 48 55 58 58 58 61 68 68 71 71 65 61 55 48 48 48 45 45 45 45 35 29 26 26 35 29 42 42 42 48 55 55 52 32 55
39 42 61 84 71 68 65 58 61 61 61 61 65 65 61 68 71 65 65 58 48 45 42 39 45 45 42 42 32 29 23 32 35 35 45 32 32 58 52 58 52 52 48
32 39 42 84 77 68 68 68 65 65 65 58 58 65 55 52 65 58 58 58 52 45 45 45 42 39 29 32 32 23 26 26 35 39 29 26 26 29 42 42 48 52 32
35 32 55 74 81 71 71 68 71 71 65 55 61 61 58 48 48 52 52 42 42 42 45 45 39 35 29 26 26 19 29 32 32 45 26 29 32 32 35 39 42 42 32
29 32 42 77 71 61 65 65 68 71 68 58 65 48 55 61 55 55 55 39 32 32 39 45 39 35 32 35 32 23 23 26 42 19 16 26 29 35 26 32 39 39 32
23 32 42 84 71 61 65 65 65 65 68 65 58 65 61 58 58 48 55 48 42 32 39 48 45 45 39 39 32 23 26 45 35 23 19 19 23 42 35 23 29 32 29
19 29 45 74 77 77 68 65 68 68 61 61 55 65 61 55 65 58 55 42 35 35 42 48 48 42 45 42 29 23 26 48 19 6 16 19 32 35 32 26 29 29 29
19 19 39 42 65 74 77 71 61 58 68 58 48 52 61 58 68 58 58 48 45 42 45 45 48 42 39 39 32 32 42 55 35 10 6 13 23 39 32 29 32 29 32
19 26 32 32 45 48 48 61 61 65 58 58 61 65 55 58 65 68 61 58 55 52 48 45 42 35 39 42 35 39 42 55 19 6 10 10 26 26 29 26 29 32 35
19 35 29 29 29 32 26 42 61 58 61 55 55 61 68 61 58 55 42 61 48 42 29 35 39 48 48 45 39 42 48 32 19 10 13 16 42 29 35 32 26 32 32
23 26 26 29 35 32 10 48 58 45 61 68 77 68 77 74 61 32 45 61 48 39 32 48 48 45 48 39 42 48 23 19 19 16 16 39 42 39 39 35 23 29 32
23 26 32 29 48 32 39 45 58 55 71 61 55 65 77 71 61 48 52 55 65 48 45 45 42 32 42 45 39 35 35 16 19 19 13 48 39 42 39 39 35 32 32
13 23 32 29 45 58 61 55 61 65 65 52 68 68 74 81 71 71 68 58 68 58 65 58 55 48 48 48 39 42 35 29 26 29 26 52 45 45 45 35 35 35 35
23 35 29 45 65 68 74 71 58 55 65 65 81 81 81 77 84 74 87 74 61 77 74 71 61 61 55 48 48 42 45 42 35 32 29 39 48 55 48 42 39 45 39
42 42 48 45 65 71 81 77 74 71 84 65 81 81 84 77 84 81 87 81 77 74 68 71 65 58 58 52 52 48 55 52 52 52 29 32 45 48 48 48 39 48 42
45 42 45 45 58 71 74 77 71 65 55 74 81 84 77 77 77 90 84 81 77 71 68 68 65 68 68 55 55 58 48 55 55 42 42 26 23 42 48 55 48 42 42
45 61 58 35 58 71 74 87 71 71 77 77 84 81 68 77 81 81 84 77 77 71 74 71 71 71 77 77 71 58 58 58 39 45 42 55 39 26 35 48 52 58 42
68 65 74 65 61 68 68 81 71 74 77 77 77 81 71 68 77 81 77 77 77 81 65 52 68 74 74 61 61 68 65 58 52 39 45 35 39 45 35 45 48 55 52
71 81 77 77 77 77 81 84 74 74 68 68 74 74 71 71 68 71 81 81 71 74 74 74 68 68 71 68 52 52 71 61 61 48 42 32 42 42 35 29 39 42 52
74 81 84 71 81 87 87 81 84 77 77 77 74 74 68 61 65 74 74 74 74 77 71 68 71 71 68 68 61 55 55 55 45 58 45 45 39 39 45 52 45 39 39
65 74 90 81 81 84 84 90 90 84 81 77 74 77 68 65 65 55 71 77 81 77 71 68 68 71 68 65 65 52 45 52 65 39 39 52 39 39 39 32 42 52 35
65 74 68 77 84 90 84 90 87 90 87 84 84 81 68 68 65 71 68 71 74 77 74 68 68 65 65 71 68 52 39 48 55 58 55 48 45 48 39 42 45 55 48
55 74 87 87 87 87 84 87 90 90 94 87 81 81 71 68 65 65 71 68 71 71 74 71 61 71 61 65 61 61 58 58 45 45 52 55 58 52 48 26 29 39 45
61 71 84 94 94 84 84 87 87 87 87 87 87 84 77 68 65 65 65 68 71 71 68 65 65 68 65 68 58 65 61 55 52 48 35 48 48 52 48 45 45 42 42
65 71 81 87 90 90 90 87 90 90 90 84 81 74 68 74 68 61 65 71 71 68 74 65 61 61 65 71 71 71 65 61 48 42 42 48 52 55 55 55 42 35 39

GEFSSE_con_cape1000_360.txt.gz
Probability
10 39 74 68 58 58 58 61 65 68 71 81 77 84 84 74 74 71 77 84 77 74 71 68 77 68 61 65 65 58 45 48 52 45 42 42 52 42 55 52 52 42 52
16 48 81 71 61 65 68 58 68 74 84 84 81 71 77 77 71 71 74 74 77 74 71 71 65 58 55 58 52 45 45 48 52 45 42 32 29 45 55 45 39 39 45
23 45 74 81 68 71 68 68 71 74 71 77 77 77 77 68 68 68 68 68 65 71 71 58 48 48 52 42 39 39 45 45 45 45 52 16 26 48 58 55 52 52 39
19 29 61 87 77 65 68 68 68 74 74 74 74 74 71 77 71 68 68 74 68 55 48 39 35 39 42 39 35 35 29 35 32 42 13 6 10 45 55 61 55 39 35
26 35 65 84 84 77 65 65 68 68 74 74 74 71 71 68 65 65 68 65 65 52 42 39 35 39 39 32 35 39 42 29 39 23 6 3 6 35 52 55 48 32 35
23 39 68 81 81 77 74 74 71 74 74 74 74 81 74 74 68 61 65 58 52 45 39 39 35 39 35 35 39 32 42 39 29 6 6 3 6 32 45 52 45 42 39
26 35 65 87 77 81 81 81 81 81 74 77 77 74 68 68 65 65 58 52 48 48 42 42 39 32 39 48 42 35 35 48 26 3 0 3 10 26 42 42 48 45 39
19 32 68 90 81 81 84 77 77 77 77 77 74 71 65 61 61 52 52 52 45 45 48 45 45 48 48 42 35 39 42 39 19 3 0 3 16 29 39 45 42 39 32
13 19 29 45 71 71 74 81 81 77 81 77 77 68 65 58 52 55 58 58 52 45 45 45 48 42 45 45 39 52 48 55 16 6 3 3 26 29 32 32 35 35 35
6 13 13 23 29 39 55 77 81 77 77 71 74 71 71 68 65 58 61 65 58 52 52 52 52 42 45 45 45 52 52 39 10 3 3 6 35 39 35 32 42 35 39
3 3 3 10 10 10 26 42 55 68 71 65 61 65 65 45 39 45 48 58 61 58 58 55 52 48 48 48 45 52 39 13 6 0 3 10 35 39 39 42 42 35 39
0 3 3 3 6 6 16 16 26 29 26 23 23 42 26 13 13 16 39 61 65 65 55 61 58 58 45 26 16 29 16 13 3 0 6 23 48 45 39 35 45 39 32
0 0 0 0 0 6 3 3 3 3 10 10 10 13 10 6 6 13 6 23 39 35 26 26 39 29 19 10 10 3 6 6 0 3 6 32 45 42 35 42 45 35 32
3 6 6 6 0 3 3 6 3 3 3 3 10 3 0 3 6 6 3 13 19 13 10 10 10 13 16 13 13 6 6 0 0 0 6 29 39 42 45 45 45 45 35
3 3 3 6 6 10 13 6 19 6 6 10 10 3 3 3 3 3 3 6 16 6 6 3 3 3 10 10 6 10 13 6 0 3 6 35 45 48 48 45 45 48 48
3 3 10 6 6 6 10 6 13 10 3 6 10 13 10 3 6 6 6 16 13 6 13 10 3 3 3 10 10 6 6 0 0 0 3 16 45 45 45 42 48 52 52
3 3 10 13 10 13 16 13 10 3 6 6 10 16 10 3 6 10 13 16 16 6 6 6 6 6 10 10 13 13 16 6 0 0 0 0 13 39 48 48 52 52 52
6 13 23 29 19 13 13 13 10 13 6 10 10 3 10 6 13 10 13 16 16 10 10 10 10 13 6 6 3 6 10 0 3 3 0 0 0 10 32 48 52 55 52
3 6 26 23 10 13 16 13 16 16 10 13 13 3 13 26 26 16 13 16 23 23 16 16 16 10 10 3 3 10 3 3 3 6 3 0 0 0 0 23 42 48 45
6 6 23 29 23 23 23 23 19 19 16 10 13 13 19 23 23 26 23 23 23 23 23 16 16 13 10 6 19 13 6 3 0 0 0 0 0 0 0 0 13 26 42
23 26 32 29 26 23 26 26 23 19 13 13 13 16 16 19 23 26 23 23 16 19 23 13 16 13 6 3 3 3 0 0 0 0 0 0 0 6 3 0 0 3 10
26 29 26 32 32 32 29 23 26 19 16 19 16 16 19 23 23 23 23 13 13 13 13 13 16 13 10 3 6 3 0 0 0 0 0 0 0 0 0 3 6 0 0
26 32 32 29 32 32 29 26 26 19 16 19 23 23 26 26 19 16 10 10 16 10 13 10 13 16 13 6 0 3 3 0 0 0 0 0 0 0 0 0 10 10 10
29 29 23 32 29 26 23 26 29 26 23 19 19 16 23 23 26 19 13 13 13 13 19 19 16 13 10 3 3 3 3 0 0 0 0 0 0 3 0 6 3 6 6
26 29 29 26 29 26 32 26 23 23 10 10 16 16 19 19 16 16 19 16 13 16 19 16 19 19 13 10 16 13 0 0 0 0 0 0 6 6 6 10 6 6 13
35 32 32 35 32 32 35 35 26 23 16 16 19 23 26 23 16 19 19 19 16 23 29 23 23 23 19 16 16 13 6 3 6 3 3 6 6 10 10 6 6 6 16

GEFSSE_con_cape1000_366.txt.gz
Probability
3 13 68 48 61 58 61 58 71 71 71 71 74 77 77 77 87 77 81 81 71 74 71 74 68 65 58 55 52 52 55 55 48 52 48 45 45 45 48 52 48 32 48
3 23 68 58 61 65 68 71 77 68 68 74 77 77 77 74 74 74 77 71 52 55 61 68 68 52 48 39 45 45 48 52 48 39 35 39 39 48 52 48 35 32 48
10 23 48 61 68 68 74 71 81 71 71 77 74 84 68 74 71 74 71 65 61 61 55 55 52 52 45 42 48 42 42 39 45 45 42 29 39 42 55 42 39 39 42
16 16 35 65 61 65 71 71 74 74 74 77 81 74 68 71 71 65 65 68 61 61 55 48 42 42 39 35 39 35 39 35 39 32 19 10 26 35 42 48 45 39 35
16 19 26 71 71 68 74 68 71 74 77 71 71 77 68 68 61 58 55 52 48 48 55 42 45 45 42 39 35 35 45 39 35 23 10 3 16 39 32 42 39 32 39
16 19 35 71 65 68 71 68 65 71 77 81 71 74 61 58 55 48 45 52 58 55 55 48 48 55 52 39 39 35 39 32 29 13 10 6 13 29 35 35 42 35 39
19 23 35 71 65 68 74 74 71 74 81 68 71 61 55 48 52 48 52 58 61 58 52 52 48 52 55 45 32 29 29 39 23 13 10 6 13 26 32 42 48 39 48
13 13 29 61 74 74 65 68 65 71 74 68 68 65 58 58 48 48 55 58 58 55 58 52 39 32 42 35 29 32 32 32 10 10 13 6 13 26 29 42 42 39 35
16 13 26 39 45 65 65 68 68 71 71 71 71 68 61 55 55 45 52 55 52 55 58 48 39 32 29 32 23 32 35 32 13 13 6 3 16 16 29 45 45 32 39
10 13 13 19 23 35 42 61 74 74 74 74 68 68 61 55 48 55 48 55 61 55 52 42 42 29 45 42 29 35 39 32 16 10 10 6 16 26 35 45 42 42 39
6 10 6 6 16 16 23 35 48 61 65 61 52 58 55 32 23 35 32 58 52 52 52 52 45 48 45 39 52 45 35 16 3 3 3 10 26 32 45 39 45 45 45
10 3 6 6 3 10 13 13 16 26 16 13 10 16 16 13 10 26 26 48 48 58 55 58 55 52 42 29 32 29 23 10 6 0 3 16 32 32 32 32 39 45 42
3 3 0 6 6 6 3 6 3 0 3 3 3 3 3 6 0 10 6 10 6 32 26 29 29 26 23 13 16 10 6 6 3 0 6 26 39 29 29 35 35 32 32
3 0 0 3 3 3 3 3 3 0 3 6 6 6 6 3 0 3 0 0 6 6 10 13 13 13 19 19 13 10 10 6 0 3 6 16 32 35 35 48 42 35 35
0 0 0 0 0 0 3 0 3 3 6 6 0 3 0 0 0 3 3 0 3 3 10 10 6 6 6 10 16 13 10 3 6 3 3 13 35 42 42 48 42 52 42
0 0 0 0 0 3 3 0 0 3 3 0 0 3 6 0 0 0 0 3 3 6 6 3 3 6 6 6 16 13 6 3 6 3 3 6 32 42 45 39 42 48 45
0 0 0 3 0 3 3 3 6 3 6 6 6 3 6 6 6 0 0 0 0 6 6 3 10 13 10 10 10 16 13 10 6 10 3 3 10 26 48 48 52 45 48
3 3 6 13 6 6 6 3 6 10 6 6 3 3 10 6 6 0 0 0 6 6 10 10 13 13 13 16 10 6 6 3 3 10 6 6 3 3 19 45 52 55 48
6 10 10 10 13 10 6 3 6 3 3 6 6 10 6 6 6 3 0 0 3 10 10 10 10 6 6 6 10 10 3 6 3 3 10 0 0 16 13 6 32 39 42
6 6 10 3 6 6 13 10 0 0 0 6 6 3 6 3 10 3 0 3 10 6 6 10 13 10 10 10 13 0 0 0 0 0 0 3 3 0 0 3 10 16 35
13 13 10 10 10 13 16 13 6 6 3 10 3 6 6 6 6 10 13 13 6 6 13 13 10 13 10 6 6 3 0 0 0 3 0 0 0 0 0 3 6 6 10
19 10 6 3 6 6 6 6 3 3 3 10 3 3 10 6 13 10 13 10 6 0 3 10 6 10 6 6 6 0 3 0 0 0 0 3 3 3 6 3 6 10 10
10 13 13 3 10 6 6 3 0 0 0 0 3 3 6 10 13 13 10 3 3 3 6 3 6 13 13 3 0 3 3 3 3 0 0 0 6 6 6 3 13 13 13
10 10 6 10 13 6 6 3 3 3 0 0 3 3 3 10 13 13 6 3 6 6 6 10 16 13 13 10 6 3 6 6 3 6 3 3 3 10 6 6 10 10 13
19 16 13 13 16 16 6 6 6 6 3 3 3 6 6 10 16 13 10 6 6 6 10 10 16 16 13 13 13 6 3 3 3 6 6 3 3 6 6 6 10 10 10
19 16 16 10 10 10 6 6 3 6 3 3 6 6 10 16 13 13 16 13 16 10 6 13 13 16 16 13 10 10 16 16 6 6 6 6 10 6 6 6 10 6 6